| time (UTC) | temp C | wind direction | speed KPH | gust KPH | rain 1hr cm | rain 24hr cm | rain mn cm | humidity % | barometer mb |
| 20260506222748 | 30 | 258 | 3.2 | 4.8 | 0.00 | 0.00 | 0.00 | 48 | 1013.5 |
| 20260506222244 | 31 | 226 | 4.8 | 4.8 | 0.00 | 0.00 | 0.00 | 48 | 1013.6 |
| 20260506221742 | 31 | 142 | 6.4 | 8.0 | 0.00 | 0.00 | 0.00 | 48 | 1013.3 |
| 20260506221240 | 31 | 157 | 1.6 | 1.6 | 0.00 | 0.00 | 0.00 | 48 | 1013.3 |
| 20260506220731 | 31 | 268 | 4.8 | 8.0 | 0.00 | 0.00 | 0.00 | 48 | 1013.4 |
| 20260506220226 | 31 | 322 | 1.6 | 1.6 | 0.00 | 0.00 | 0.00 | 47 | 1013.2 |
| 20260506215722 | 32 | 240 | 9.7 | 16.1 | 0.00 | 0.00 | 0.00 | 46 | 1013.2 |
| 20260506215218 | 32 | 203 | 1.6 | 1.6 | 0.00 | 0.00 | 0.00 | 46 | 1013.3 |
| 20260506214715 | 32 | 261 | 3.2 | 3.2 | 0.00 | 0.00 | 0.00 | 46 | 1013.3 |
| 20260506214212 | 33 | 212 | 3.2 | 3.2 | 0.00 | 0.00 | 0.00 | 42 | 1013.4 |
| 20260506213710 | 33 | 257 | 3.2 | 3.2 | 0.00 | 0.00 | 0.00 | 41 | 1013.1 |
| 20260506213208 | 33 | 221 | 4.8 | 8.0 | 0.00 | 0.00 | 0.00 | 42 | 1013.3 |
| 20260506212704 | 33 | 307 | 4.8 | 8.0 | 0.00 | 0.00 | 0.00 | 40 | 1013.6 |
| 20260506212200 | 33 | 247 | 3.2 | 4.8 | 0.00 | 0.00 | 0.00 | 41 | 1013.4 |
| 20260506211650 | 33 | 262 | 4.8 | 4.8 | 0.00 | 0.00 | 0.00 | 40 | 1013.5 |
| 20260506211147 | 34 | 251 | 4.8 | 8.0 | 0.00 | 0.00 | 0.00 | 39 | 1013.4 |
| 20260506210644 | 33 | 209 | 1.6 | 3.2 | 0.00 | 0.00 | 0.00 | 39 | 1013.5 |
| 20260506210140 | 33 | 307 | 4.8 | 4.8 | 0.00 | 0.00 | 0.00 | 41 | 1013.4 |
| 20260506205638 | 33 | 311 | 3.2 | 3.2 | 0.00 | 0.00 | 0.00 | 41 | 1013.5 |
| 20260506205137 | 33 | 251 | 3.2 | 3.2 | 0.00 | 0.00 | 0.00 | 40 | 1013.4 |
| 20260506204636 | 34 | 267 | 6.4 | 9.7 | 0.00 | 0.00 | 0.00 | 40 | 1013.5 |
| 20260506204132 | 35 | 232 | 3.2 | 4.8 | 0.00 | 0.00 | 0.00 | 38 | 1013.5 |
| 20260506203631 | 34 | 134 | 6.4 | 8.0 | 0.00 | 0.00 | 0.00 | 37 | 1013.4 |
| 20260506203127 | 34 | 312 | 1.6 | 1.6 | 0.00 | 0.00 | 0.00 | 36 | 1013.5 |
| 20260506202625 | 34 | 113 | 3.2 | 3.2 | 0.00 | 0.00 | 0.00 | 36 | 1013.5 |
| 20260506202121 | 33 | 331 | 4.8 | 8.0 | 0.00 | 0.00 | 0.00 | 37 | 1013.5 |
| 20260506201618 | 34 | 163 | 4.8 | 4.8 | 0.00 | 0.00 | 0.00 | 38 | 1013.6 |
| 20260506201115 | 35 | 287 | 1.6 | 3.2 | 0.00 | 0.00 | 0.00 | 38 | 1013.6 |
| 20260506200611 | 35 | 188 | 6.4 | 9.7 | 0.00 | 0.00 | 0.00 | 37 | 1013.6 |
| 20260506200108 | 35 | 305 | 3.2 | 4.8 | 0.00 | 0.00 | 0.00 | 38 | 1013.6 |
| 20260506195604 | 33 | 267 | 3.2 | 3.2 | 0.00 | 0.00 | 0.00 | 38 | 1013.8 |
| 20260506195101 | 33 | 273 | 4.8 | 4.8 | 0.00 | 0.00 | 0.00 | 40 | 1013.7 |
| 20260506194559 | 34 | 246 | 3.2 | 4.8 | 0.00 | 0.00 | 0.00 | 38 | 1013.9 |
| 20260506194055 | 34 | 284 | 4.8 | 8.0 | 0.00 | 0.00 | 0.00 | 38 | 1013.8 |
| 20260506193553 | 34 | 311 | 3.2 | 4.8 | 0.00 | 0.00 | 0.00 | 39 | 1013.7 |
| 20260506193050 | 33 | 297 | 1.6 | 1.6 | 0.00 | 0.00 | 0.00 | 41 | 1013.8 |
| 20260506192546 | 33 | 248 | 1.6 | 1.6 | 0.00 | 0.00 | 0.00 | 40 | 1013.9 |
| 20260506192042 | 33 | 197 | 4.8 | 4.8 | 0.00 | 0.00 | 0.00 | 41 | 1013.9 |
| 20260506191539 | 33 | 232 | 3.2 | 4.8 | 0.00 | 0.00 | 0.00 | 40 | 1014.1 |
| 20260506191035 | 34 | 275 | 4.8 | 4.8 | 0.00 | 0.00 | 0.00 | 38 | 1014.2 |
| 20260506190532 | 33 | 276 | 4.8 | 4.8 | 0.00 | 0.00 | 0.00 | 40 | 1014.3 |
| 20260506190030 | 33 | 267 | 0.0 | 0.0 | 0.00 | 0.00 | 0.00 | 41 | 1014.4 |
| 20260506185527 | 34 | 182 | 3.2 | 4.8 | 0.00 | 0.00 | 0.00 | 39 | 1014.3 |
| 20260506185023 | 33 | 287 | 1.6 | 1.6 | 0.00 | 0.00 | 0.00 | 41 | 1014.2 |
| 20260506184520 | 33 | 49 | 4.8 | 8.0 | 0.00 | 0.00 | 0.00 | 43 | 1014.4 |
| 20260506184018 | 33 | 116 | 3.2 | 4.8 | 0.00 | 0.00 | 0.00 | 42 | 1014.4 |
| 20260506183513 | 33 | 270 | 1.6 | 3.2 | 0.00 | 0.00 | 0.00 | 42 | 1014.5 |
| 20260506183010 | 33 | 198 | 4.8 | 4.8 | 0.00 | 0.00 | 0.00 | 44 | 1014.7 |
| 20260506182508 | 33 | 194 | 3.2 | 4.8 | 0.00 | 0.00 | 0.00 | 43 | 1014.8 |
| 20260506182004 | 34 | 219 | 4.8 | 4.8 | 0.00 | 0.00 | 0.00 | 41 | 1014.7 |
| 20260506181502 | 33 | 275 | 4.8 | 4.8 | 0.00 | 0.00 | 0.00 | 41 | 1014.7 |
| 20260506180959 | 33 | 169 | 1.6 | 3.2 | 0.00 | 0.00 | 0.00 | 41 | 1014.7 |
| 20260506180456 | 33 | 302 | 0.0 | 1.6 | 0.00 | 0.00 | 0.00 | 43 | 1014.8 |
| 20260506175952 | 33 | 52 | 6.4 | 8.0 | 0.00 | 0.00 | 0.00 | 44 | 1014.7 |
| 20260506175449 | 33 | 245 | 1.6 | 3.2 | 0.00 | 0.00 | 0.00 | 44 | 1014.8 |
| 20260506174945 | 32 | 44 | 1.6 | 3.2 | 0.00 | 0.00 | 0.00 | 44 | 1014.8 |
| 20260506174444 | 32 | 67 | 3.2 | 3.2 | 0.00 | 0.00 | 0.00 | 43 | 1015.0 |
| 20260506173940 | 32 | 276 | 3.2 | 4.8 | 0.00 | 0.00 | 0.00 | 46 | 1014.9 |
| 20260506173438 | 32 | 332 | 1.6 | 1.6 | 0.00 | 0.00 | 0.00 | 47 | 1015.0 |
| 20260506172934 | 33 | 244 | 1.6 | 1.6 | 0.00 | 0.00 | 0.00 | 47 | 1015.1 |
| 20260506172431 | 33 | 294 | 1.6 | 1.6 | 0.00 | 0.00 | 0.00 | 46 | 1015.2 |
| 20260506171923 | 32 | 199 | 4.8 | 4.8 | 0.00 | 0.00 | 0.00 | 48 | 1015.3 |
| 20260506171420 | 31 | 280 | 0.0 | 0.0 | 0.00 | 0.00 | 0.00 | 50 | 1015.3 |
| 20260506170917 | 31 | 286 | 4.8 | 4.8 | 0.00 | 0.00 | 0.00 | 49 | 1015.5 |
| 20260506170413 | 31 | 10 | 6.4 | 8.0 | 0.00 | 0.00 | 0.00 | 49 | 1015.4 |
| 20260506165912 | 31 | 312 | 4.8 | 4.8 | 0.00 | 0.00 | 0.00 | 51 | 1015.7 |
| 20260506165410 | 31 | 315 | 1.6 | 1.6 | 0.00 | 0.00 | 0.00 | 53 | 1015.5 |
| 20260506164906 | 31 | 208 | 4.8 | 8.0 | 0.00 | 0.00 | 0.00 | 50 | 1015.7 |
| 20260506164403 | 30 | 184 | 1.6 | 3.2 | 0.00 | 0.00 | 0.00 | 52 | 1015.7 |
| 20260506163901 | 30 | 279 | 3.2 | 3.2 | 0.00 | 0.00 | 0.00 | 52 | 1015.6 |
| 20260506163355 | 30 | 244 | 6.4 | 9.7 | 0.00 | 0.00 | 0.00 | 53 | 1015.9 |
| 20260506162845 | 30 | 180 | 1.6 | 1.6 | 0.00 | 0.00 | 0.00 | 52 | 1015.8 |
| 20260506162343 | 31 | 209 | 6.4 | 9.7 | 0.00 | 0.00 | 0.00 | 53 | 1015.8 |
| 20260506161840 | 30 | 249 | 1.6 | 1.6 | 0.00 | 0.00 | 0.00 | 53 | 1015.8 |
| 20260506161337 | 29 | 330 | 1.6 | 3.2 | 0.00 | 0.00 | 0.00 | 55 | 1015.8 |
| 20260506160830 | 30 | 14 | 1.6 | 1.6 | 0.00 | 0.00 | 0.00 | 55 | 1016.1 |
| 20260506160326 | 30 | 319 | 4.8 | 8.0 | 0.00 | 0.00 | 0.00 | 54 | 1016.3 |
| 20260506155825 | 30 | 270 | 1.6 | 1.6 | 0.00 | 0.00 | 0.00 | 55 | 1016.1 |
| 20260506155321 | 30 | 122 | 6.4 | 8.0 | 0.00 | 0.00 | 0.00 | 55 | 1016.1 |
| 20260506153438 | 29 | 274 | 6.4 | 9.7 | 0.00 | 0.00 | 0.00 | 57 | 1016.2 |
| 20260506152936 | 29 | 206 | 3.2 | 3.2 | 0.00 | 0.00 | 0.00 | 57 | 1016.3 |
| 20260506152432 | 29 | 262 | 1.6 | 3.2 | 0.00 | 0.00 | 0.00 | 57 | 1016.3 |
| 20260506151931 | 28 | 129 | 6.4 | 9.7 | 0.00 | 0.00 | 0.00 | 58 | 1016.3 |
| 20260506151428 | 28 | 214 | 1.6 | 1.6 | 0.00 | 0.00 | 0.00 | 59 | 1016.3 |
| 20260506150926 | 28 | 236 | 8.0 | 9.7 | 0.00 | 0.00 | 0.00 | 59 | 1016.1 |
| 20260506150422 | 28 | 177 | 4.8 | 8.0 | 0.00 | 0.00 | 0.00 | 58 | 1016.3 |
| 20260506145919 | 28 | 275 | 1.6 | 1.6 | 0.00 | 0.00 | 0.00 | 60 | 1016.1 |
| 20260506145415 | 28 | 159 | 4.8 | 4.8 | 0.00 | 0.00 | 0.00 | 61 | 1016.1 |
| 20260506144913 | 28 | 270 | 0.0 | 0.0 | 0.00 | 0.00 | 0.00 | 60 | 1016.1 |
| 20260506144409 | 27 | 235 | 3.2 | 3.2 | 0.00 | 0.00 | 0.00 | 62 | 1016.1 |
| 20260506143907 | 27 | 275 | 1.6 | 3.2 | 0.00 | 0.00 | 0.00 | 63 | 1015.9 |
| 20260506143404 | 27 | 247 | 4.8 | 8.0 | 0.00 | 0.00 | 0.00 | 61 | 1015.6 |
| 20260506142902 | 27 | 106 | 3.2 | 4.8 | 0.00 | 0.00 | 0.00 | 63 | 1015.8 |
| 20260506142400 | 26 | 108 | 1.6 | 3.2 | 0.00 | 0.00 | 0.00 | 64 | 1015.7 |
| 20260506141858 | 26 | 256 | 3.2 | 3.2 | 0.00 | 0.00 | 0.00 | 65 | 1015.8 |
| 20260506141355 | 26 | 279 | 4.8 | 8.0 | 0.00 | 0.00 | 0.00 | 65 | 1015.6 |
| 20260506140853 | 26 | 221 | 4.8 | 4.8 | 0.00 | 0.00 | 0.00 | 66 | 1015.7 |
| 20260506140350 | 26 | 267 | 1.6 | 1.6 | 0.00 | 0.00 | 0.00 | 66 | 1015.8 |
| 20260506135847 | 25 | 261 | 4.8 | 4.8 | 0.00 | 0.00 | 0.00 | 68 | 1016.1 |
| 20260506135344 | 25 | 296 | 0.0 | 0.0 | 0.00 | 0.00 | 0.00 | 68 | 1015.8 |
| 20260506134840 | 25 | 270 | 1.6 | 1.6 | 0.00 | 0.00 | 0.00 | 69 | 1016.1 |
| 20260506134336 | 25 | 246 | 1.6 | 1.6 | 0.00 | 0.00 | 0.00 | 69 | 1015.8 |
| 20260506133834 | 25 | 349 | 1.6 | 3.2 | 0.00 | 0.00 | 0.00 | 70 | 1015.9 |
| 20260506133330 | 24 | 238 | 0.0 | 0.0 | 0.00 | 0.00 | 0.00 | 70 | 1015.7 |
| 20260506132827 | 24 | 140 | 1.6 | 3.2 | 0.00 | 0.00 | 0.00 | 71 | 1015.7 |
| 20260506132324 | 23 | 197 | 6.4 | 8.0 | 0.00 | 0.00 | 0.00 | 72 | 1015.9 |
| 20260506131822 | 23 | 233 | 6.4 | 11.3 | 0.00 | 0.00 | 0.00 | 72 | 1015.8 |
| 20260506131318 | 23 | 278 | 1.6 | 3.2 | 0.00 | 0.00 | 0.00 | 72 | 1015.7 |
| 20260506130816 | 23 | 292 | 1.6 | 3.2 | 0.00 | 0.00 | 0.00 | 72 | 1015.7 |
| 20260506130312 | 23 | 300 | 0.0 | 0.0 | 0.00 | 0.00 | 0.00 | 72 | 1015.5 |
| 20260506125810 | 22 | 282 | 4.8 | 4.8 | 0.00 | 0.00 | 0.00 | 73 | 1015.7 |
| 20260506125308 | 22 | 217 | 3.2 | 3.2 | 0.00 | 0.00 | 0.00 | 72 | 1015.5 |
| 20260506124806 | 22 | 260 | 0.0 | 1.6 | 0.00 | 0.00 | 0.00 | 72 | 1015.5 |
| 20260506124303 | 21 | 276 | 0.0 | 0.0 | 0.00 | 0.00 | 0.00 | 74 | 1015.4 |
| 20260506123800 | 21 | 287 | 0.0 | 0.0 | 0.00 | 0.00 | 0.00 | 74 | 1015.2 |
| 20260506123259 | 21 | 145 | 4.8 | 4.8 | 0.00 | 0.00 | 0.00 | 74 | 1015.3 |
| 20260506122755 | 20 | 277 | 1.6 | 1.6 | 0.00 | 0.00 | 0.00 | 75 | 1015.3 |
| 20260506122252 | 20 | 246 | 1.6 | 3.2 | 0.00 | 0.00 | 0.00 | 76 | 1015.6 |
| 20260506121751 | 20 | 315 | 0.0 | 0.0 | 0.00 | 0.00 | 0.00 | 77 | 1015.4 |
| 20260506121247 | 19 | 279 | 0.0 | 0.0 | 0.00 | 0.00 | 0.00 | 78 | 1015.3 |
| 20260506120744 | 18 | 285 | 0.0 | 0.0 | 0.00 | 0.00 | 0.00 | 80 | 1015.3 |
| 20260506120242 | 17 | 287 | 0.0 | 0.0 | 0.00 | 0.00 | 0.00 | 82 | 1015.3 |
| 20260506115740 | 17 | 288 | 0.0 | 0.0 | 0.00 | 0.00 | 0.00 | 83 | 1015.4 |
| 20260506115238 | 17 | 288 | 0.0 | 0.0 | 0.00 | 0.00 | 0.00 | 83 | 1015.2 |
| 20260506114735 | 17 | 288 | 0.0 | 0.0 | 0.00 | 0.00 | 0.00 | 84 | 1015.2 |
| 20260506114233 | 16 | 288 | 0.0 | 0.0 | 0.00 | 0.00 | 0.00 | 85 | 1015.1 |
| 20260506113731 | 16 | 288 | 0.0 | 0.0 | 0.00 | 0.00 | 0.00 | 86 | 1014.9 |
| 20260506113228 | 16 | 288 | 0.0 | 0.0 | 0.00 | 0.00 | 0.00 | 86 | 1015.1 |
| 20260506112724 | 16 | 288 | 0.0 | 0.0 | 0.00 | 0.00 | 0.00 | 87 | 1014.8 |
| 20260506112222 | 15 | 288 | 0.0 | 0.0 | 0.00 | 0.00 | 0.00 | 87 | 1014.8 |
| 20260506111719 | 15 | 288 | 0.0 | 0.0 | 0.00 | 0.00 | 0.00 | 87 | 1014.9 |
| 20260506111218 | 15 | 288 | 0.0 | 0.0 | 0.00 | 0.00 | 0.00 | 87 | 1014.9 |
| 20260506110714 | 15 | 288 | 0.0 | 0.0 | 0.00 | 0.00 | 0.00 | 87 | 1014.8 |
| 20260506110212 | 15 | 288 | 0.0 | 0.0 | 0.00 | 0.00 | 0.00 | 87 | 1015.1 |
| 20260506105708 | 15 | 288 | 0.0 | 0.0 | 0.00 | 0.00 | 0.00 | 87 | 1014.7 |
| 20260506105205 | 15 | 288 | 0.0 | 0.0 | 0.00 | 0.00 | 0.00 | 88 | 1014.9 |
| 20260506104703 | 15 | 289 | 0.0 | 0.0 | 0.00 | 0.00 | 0.00 | 88 | 1014.9 |
| 20260506104200 | 15 | 289 | 0.0 | 0.0 | 0.00 | 0.00 | 0.00 | 87 | 1014.8 |
| 20260506103657 | 15 | 289 | 0.0 | 0.0 | 0.00 | 0.00 | 0.00 | 87 | 1014.6 |
| 20260506103154 | 15 | 289 | 0.0 | 0.0 | 0.00 | 0.00 | 0.00 | 87 | 1014.6 |
| 20260506102653 | 15 | 289 | 0.0 | 0.0 | 0.00 | 0.00 | 0.00 | 87 | 1014.5 |
| 20260506102151 | 15 | 289 | 0.0 | 0.0 | 0.00 | 0.00 | 0.00 | 87 | 1014.6 |
| 20260506101647 | 15 | 289 | 0.0 | 0.0 | 0.00 | 0.00 | 0.00 | 87 | 1014.5 |
| 20260506101144 | 15 | 289 | 0.0 | 0.0 | 0.00 | 0.00 | 0.00 | 87 | 1014.4 |
| 20260506100642 | 15 | 289 | 0.0 | 0.0 | 0.00 | 0.00 | 0.00 | 86 | 1014.6 |
| 20260506100139 | 15 | 286 | 0.0 | 0.0 | 0.00 | 0.00 | 0.00 | 86 | 1014.4 |
| 20260506095638 | 15 | 286 | 0.0 | 0.0 | 0.00 | 0.00 | 0.00 | 86 | 1014.2 |
| 20260506095134 | 15 | 286 | 0.0 | 0.0 | 0.00 | 0.00 | 0.00 | 86 | 1014.3 |
| 20260506094631 | 15 | 286 | 0.0 | 0.0 | 0.00 | 0.00 | 0.00 | 85 | 1014.4 |
| 20260506094129 | 15 | 286 | 0.0 | 0.0 | 0.00 | 0.00 | 0.00 | 86 | 1014.3 |
| 20260506093628 | 15 | 286 | 0.0 | 0.0 | 0.00 | 0.00 | 0.00 | 85 | 1014.4 |
| 20260506093125 | 15 | 286 | 0.0 | 0.0 | 0.00 | 0.00 | 0.00 | 85 | 1014.2 |
| 20260506092623 | 16 | 286 | 0.0 | 0.0 | 0.00 | 0.00 | 0.00 | 85 | 1014.3 |
| 20260506092120 | 16 | 286 | 0.0 | 0.0 | 0.00 | 0.00 | 0.00 | 84 | 1014.2 |
| 20260506091618 | 16 | 286 | 0.0 | 0.0 | 0.00 | 0.00 | 0.00 | 84 | 1014.4 |
| 20260506091115 | 16 | 286 | 0.0 | 0.0 | 0.00 | 0.00 | 0.00 | 84 | 1014.2 |
| 20260506090613 | 16 | 286 | 0.0 | 0.0 | 0.00 | 0.00 | 0.00 | 84 | 1014.3 |
| 20260506090108 | 16 | 286 | 0.0 | 0.0 | 0.00 | 0.00 | 0.00 | 84 | 1014.2 |
| 20260506085605 | 16 | 286 | 0.0 | 0.0 | 0.00 | 0.00 | 0.00 | 84 | 1014.4 |
| 20260506085101 | 16 | 286 | 0.0 | 0.0 | 0.00 | 0.00 | 0.00 | 83 | 1014.4 |
| 20260506084558 | 16 | 286 | 0.0 | 0.0 | 0.00 | 0.00 | 0.00 | 83 | 1014.5 |
| 20260506084055 | 16 | 286 | 0.0 | 0.0 | 0.00 | 0.00 | 0.00 | 83 | 1014.2 |
| 20260506083552 | 16 | 286 | 0.0 | 0.0 | 0.00 | 0.00 | 0.00 | 82 | 1014.3 |
| 20260506083049 | 16 | 286 | 0.0 | 0.0 | 0.00 | 0.00 | 0.00 | 82 | 1014.3 |
| 20260506082546 | 16 | 285 | 0.0 | 0.0 | 0.00 | 0.00 | 0.00 | 82 | 1014.3 |
| 20260506082042 | 16 | 285 | 0.0 | 0.0 | 0.00 | 0.00 | 0.00 | 82 | 1014.4 |
| 20260506081540 | 16 | 290 | 0.0 | 0.0 | 0.00 | 0.00 | 0.00 | 82 | 1014.3 |
| 20260506081037 | 16 | 290 | 0.0 | 0.0 | 0.00 | 0.00 | 0.00 | 81 | 1014.5 |
| 20260506080535 | 16 | 290 | 0.0 | 0.0 | 0.00 | 0.00 | 0.00 | 81 | 1014.5 |
| 20260506073518 | 16 | 290 | 0.0 | 0.0 | 0.00 | 0.00 | 0.00 | 80 | 1014.2 |
| 20260506073015 | 16 | 290 | 0.0 | 0.0 | 0.00 | 0.00 | 0.00 | 80 | 1014.2 |
| 20260506072512 | 17 | 290 | 0.0 | 0.0 | 0.00 | 0.00 | 0.00 | 80 | 1014.0 |
| 20260506072010 | 17 | 290 | 0.0 | 0.0 | 0.00 | 0.00 | 0.00 | 79 | 1014.1 |
| 20260506071508 | 17 | 291 | 0.0 | 0.0 | 0.00 | 0.00 | 0.00 | 79 | 1014.2 |
| 20260506071005 | 17 | 291 | 0.0 | 0.0 | 0.00 | 0.00 | 0.00 | 80 | 1014.2 |
| 20260506070502 | 17 | 290 | 0.0 | 0.0 | 0.00 | 0.00 | 0.00 | 79 | 1014.1 |
| 20260506062439 | 17 | 290 | 0.0 | 0.0 | 0.00 | 0.00 | 0.00 | 76 | 1014.8 |
| 20260506061935 | 17 | 290 | 0.0 | 0.0 | 0.00 | 0.00 | 0.00 | 77 | 1014.8 |
| 20260506061432 | 17 | 290 | 0.0 | 0.0 | 0.00 | 0.00 | 0.00 | 77 | 1014.8 |
| 20260506060930 | 17 | 290 | 0.0 | 0.0 | 0.00 | 0.00 | 0.00 | 76 | 1015.1 |
| 20260506060428 | 17 | 290 | 0.0 | 0.0 | 0.00 | 0.00 | 0.00 | 76 | 1015.0 |
| 20260506051400 | 18 | 290 | 0.0 | 0.0 | 0.00 | 0.00 | 0.00 | 71 | 1015.3 |
| 20260506050857 | 18 | 290 | 0.0 | 0.0 | 0.00 | 0.00 | 0.00 | 71 | 1015.4 |
| 20260506050354 | 19 | 290 | 0.0 | 0.0 | 0.00 | 0.00 | 0.00 | 70 | 1015.4 |
| 20260506044844 | 19 | 290 | 0.0 | 0.0 | 0.00 | 0.00 | 0.00 | 70 | 1015.3 |
| 20260506044343 | 19 | 290 | 0.0 | 0.0 | 0.00 | 0.00 | 0.00 | 69 | 1015.6 |
| 20260506043839 | 19 | 290 | 0.0 | 0.0 | 0.00 | 0.00 | 0.00 | 69 | 1015.5 |
| 20260506043337 | 19 | 290 | 0.0 | 0.0 | 0.00 | 0.00 | 0.00 | 69 | 1015.5 |
| 20260506042835 | 19 | 290 | 0.0 | 0.0 | 0.00 | 0.00 | 0.00 | 69 | 1015.7 |
| 20260506042334 | 20 | 290 | 0.0 | 0.0 | 0.00 | 0.00 | 0.00 | 68 | 1015.5 |
| 20260506041832 | 20 | 290 | 0.0 | 0.0 | 0.00 | 0.00 | 0.00 | 68 | 1015.5 |
| 20260506041328 | 20 | 291 | 0.0 | 0.0 | 0.00 | 0.00 | 0.00 | 68 | 1015.5 |
| 20260506040826 | 19 | 285 | 1.6 | 1.6 | 0.00 | 0.00 | 0.00 | 68 | 1015.5 |
| 20260506040324 | 20 | 300 | 0.0 | 0.0 | 0.00 | 0.00 | 0.00 | 69 | 1015.7 |
| 20260506035819 | 20 | 300 | 0.0 | 0.0 | 0.00 | 0.00 | 0.00 | 68 | 1015.5 |
| 20260506035317 | 20 | 300 | 0.0 | 0.0 | 0.00 | 0.00 | 0.00 | 68 | 1015.9 |
| 20260506034814 | 20 | 300 | 0.0 | 0.0 | 0.00 | 0.00 | 0.00 | 67 | 1015.6 |
| 20260506034311 | 20 | 300 | 0.0 | 0.0 | 0.00 | 0.00 | 0.00 | 66 | 1015.8 |
| 20260506033808 | 20 | 300 | 0.0 | 0.0 | 0.00 | 0.00 | 0.00 | 66 | 1015.9 |
| 20260506033305 | 20 | 299 | 0.0 | 0.0 | 0.00 | 0.00 | 0.00 | 66 | 1015.6 |
| 20260506032802 | 20 | 299 | 0.0 | 0.0 | 0.00 | 0.00 | 0.00 | 65 | 1015.8 |
| 20260506032259 | 20 | 299 | 0.0 | 0.0 | 0.00 | 0.00 | 0.00 | 64 | 1015.6 |
| 20260506031755 | 21 | 299 | 0.0 | 0.0 | 0.00 | 0.00 | 0.00 | 64 | 1015.5 |
| 20260506031252 | 21 | 299 | 0.0 | 0.0 | 0.00 | 0.00 | 0.00 | 64 | 1015.4 |
| 20260506030750 | 21 | 300 | 0.0 | 0.0 | 0.00 | 0.00 | 0.00 | 63 | 1015.3 |
| 20260506030248 | 21 | 295 | 0.0 | 0.0 | 0.00 | 0.00 | 0.00 | 63 | 1015.2 |
| 20260506025744 | 21 | 295 | 0.0 | 0.0 | 0.00 | 0.00 | 0.00 | 63 | 1015.0 |
| 20260506025241 | 21 | 295 | 0.0 | 0.0 | 0.00 | 0.00 | 0.00 | 62 | 1015.1 |
| 20260506024738 | 21 | 295 | 0.0 | 0.0 | 0.00 | 0.00 | 0.00 | 62 | 1015.1 |
| 20260506024235 | 22 | 294 | 0.0 | 0.0 | 0.00 | 0.00 | 0.00 | 61 | 1015.1 |
| 20260506023731 | 22 | 281 | 0.0 | 0.0 | 0.00 | 0.00 | 0.00 | 61 | 1015.0 |
| 20260506023229 | 22 | 272 | 0.0 | 0.0 | 0.00 | 0.00 | 0.00 | 61 | 1014.8 |
| 20260506022725 | 22 | 304 | 0.0 | 0.0 | 0.00 | 0.00 | 0.00 | 60 | 1015.0 |
| 20260506022223 | 22 | 304 | 0.0 | 0.0 | 0.00 | 0.00 | 0.00 | 60 | 1014.6 |
| 20260506021721 | 22 | 306 | 0.0 | 0.0 | 0.00 | 0.00 | 0.00 | 60 | 1014.8 |
| 20260506021218 | 22 | 291 | 0.0 | 0.0 | 0.00 | 0.00 | 0.00 | 60 | 1014.7 |
| 20260506020714 | 22 | 296 | 0.0 | 0.0 | 0.00 | 0.00 | 0.00 | 60 | 1014.6 |
| 20260506020212 | 22 | 294 | 0.0 | 0.0 | 0.00 | 0.00 | 0.00 | 60 | 1014.7 |
| 20260506015709 | 23 | 275 | 0.0 | 0.0 | 0.00 | 0.00 | 0.00 | 59 | 1014.4 |
| 20260506015207 | 23 | 262 | 0.0 | 0.0 | 0.00 | 0.00 | 0.00 | 59 | 1014.4 |
| 20260506014704 | 23 | 299 | 0.0 | 0.0 | 0.00 | 0.00 | 0.00 | 58 | 1014.3 |
| 20260506014159 | 23 | 297 | 0.0 | 0.0 | 0.00 | 0.00 | 0.00 | 58 | 1014.6 |
| 20260506013657 | 23 | 272 | 1.6 | 1.6 | 0.00 | 0.00 | 0.00 | 57 | 1014.4 |
| 20260506013154 | 23 | 276 | 0.0 | 0.0 | 0.00 | 0.00 | 0.00 | 57 | 1014.8 |
| 20260506012650 | 24 | 277 | 0.0 | 0.0 | 0.00 | 0.00 | 0.00 | 56 | 1014.5 |
| 20260506012147 | 24 | 160 | 4.8 | 4.8 | 0.00 | 0.00 | 0.00 | 56 | 1014.4 |
| 20260506011645 | 24 | 278 | 0.0 | 0.0 | 0.00 | 0.00 | 0.00 | 56 | 1014.3 |
| 20260506011141 | 25 | 90 | 0.0 | 1.6 | 0.00 | 0.00 | 0.00 | 55 | 1014.2 |
| 20260506010640 | 25 | 292 | 0.0 | 0.0 | 0.00 | 0.00 | 0.00 | 55 | 1014.4 |
| 20260506010136 | 25 | 320 | 1.6 | 3.2 | 0.00 | 0.00 | 0.00 | 54 | 1014.2 |
| 20260506005633 | 25 | 286 | 0.0 | 0.0 | 0.00 | 0.00 | 0.00 | 54 | 1014.2 |
| 20260506005130 | 25 | 306 | 0.0 | 0.0 | 0.00 | 0.00 | 0.00 | 53 | 1014.1 |
| 20260506004626 | 25 | 285 | 0.0 | 0.0 | 0.00 | 0.00 | 0.00 | 53 | 1014.2 |
| 20260506004124 | 25 | 27 | 1.6 | 1.6 | 0.00 | 0.00 | 0.00 | 52 | 1014.3 |
| 20260506003620 | 25 | 289 | 0.0 | 0.0 | 0.00 | 0.00 | 0.00 | 52 | 1014.2 |
| 20260506003116 | 26 | 256 | 1.6 | 1.6 | 0.00 | 0.00 | 0.00 | 52 | 1013.8 |
| 20260506002612 | 26 | 4 | 1.6 | 1.6 | 0.00 | 0.00 | 0.00 | 51 | 1013.7 |
| 20260506002108 | 26 | 148 | 1.6 | 3.2 | 0.00 | 0.00 | 0.00 | 51 | 1013.7 |
| 20260506001604 | 26 | 266 | 1.6 | 1.6 | 0.00 | 0.00 | 0.00 | 51 | 1013.5 |
| 20260506001102 | 27 | 7 | 0.0 | 0.0 | 0.00 | 0.00 | 0.00 | 49 | 1013.7 |
| 20260506000559 | 27 | 275 | 0.0 | 1.6 | 0.00 | 0.00 | 0.00 | 49 | 1013.4 |
| 20260506000051 | 27 | 301 | 0.0 | 0.0 | 0.00 | 0.00 | 0.00 | 47 | 1013.1 |
| 20260505235549 | 27 | 294 | 0.0 | 0.0 | 0.00 | 0.00 | 0.00 | 46 | 1012.9 |
| 20260505235046 | 28 | 276 | 0.0 | 0.0 | 0.00 | 0.00 | 0.00 | 47 | 1013.0 |
| 20260505234543 | 28 | 276 | 0.0 | 0.0 | 0.00 | 0.00 | 0.00 | 44 | 1012.8 |
| 20260505234039 | 28 | 256 | 1.6 | 1.6 | 0.00 | 0.00 | 0.00 | 44 | 1012.8 |
| 20260505233536 | 28 | 293 | 1.6 | 1.6 | 0.00 | 0.00 | 0.00 | 44 | 1012.8 |
| 20260505233034 | 28 | 291 | 0.0 | 1.6 | 0.00 | 0.00 | 0.00 | 43 | 1012.8 |
| 20260505232532 | 28 | 282 | 0.0 | 0.0 | 0.00 | 0.00 | 0.00 | 43 | 1012.6 |
| 20260505232029 | 28 | 299 | 0.0 | 0.0 | 0.00 | 0.00 | 0.00 | 42 | 1013.0 |
| 20260505231526 | 28 | 269 | 0.0 | 0.0 | 0.00 | 0.00 | 0.00 | 41 | 1012.8 |
| 20260505231025 | 28 | 271 | 0.0 | 0.0 | 0.00 | 0.00 | 0.00 | 41 | 1012.8 |
| 20260505230521 | 28 | 266 | 0.0 | 0.0 | 0.00 | 0.00 | 0.00 | 45 | 1012.7 |
| 20260505230017 | 28 | 281 | 0.0 | 0.0 | 0.00 | 0.00 | 0.00 | 41 | 1012.6 |
| 20260505225509 | 28 | 284 | 0.0 | 0.0 | 0.00 | 0.00 | 0.00 | 41 | 1012.8 |
| 20260505225005 | 28 | 269 | 0.0 | 0.0 | 0.00 | 0.00 | 0.00 | 41 | 1012.8 |
| 20260505224502 | 28 | 275 | 0.0 | 0.0 | 0.00 | 0.00 | 0.00 | 45 | 1012.9 |
| 20260505223959 | 28 | 286 | 0.0 | 0.0 | 0.00 | 0.00 | 0.00 | 44 | 1012.6 |
| 20260505223456 | 28 | 263 | 0.0 | 0.0 | 0.00 | 0.00 | 0.00 | 41 | 1012.7 |
| 20260505222952 | 28 | 266 | 0.0 | 0.0 | 0.00 | 0.00 | 0.00 | 43 | 1012.9 |